Time,TemperatureF,DewpointF,PressureIn,WindDirection,WindDirectionDegrees,WindSpeedMPH,WindSpeedGustMPH,Humidity,HourlyPrecipIn,Conditions,Clouds,dailyrainin,SolarRadiationWatts/m^2,SoftwareType,DateUTC
2013-10-01 00:00:00,80.9,72.6,29.99,SSE,151,2.0,4.0,76,0.00,,FEW021,0.00,0.00,VWS V14.01,2013-10-01 04:00:00,
2013-10-01 00:01:00,80.9,72.6,29.99,SSE,150,2.0,4.0,76,0.00,,FEW021,0.00,0.00,VWS V14.01,2013-10-01 04:01:00,
2013-10-01 00:06:00,80.8,72.5,29.99,NE,49,1.0,7.0,76,0.00,,FEW021,0.00,0.00,VWS V14.01,2013-10-01 04:06:00,
2013-10-01 00:11:00,80.8,72.5,29.99,SE,134,2.0,2.0,76,0.00,,FEW021,0.00,0.00,VWS V14.01,2013-10-01 04:11:00,
2013-10-01 00:16:00,80.8,72.5,29.99,ESE,110,2.0,4.0,76,0.00,,FEW021,0.00,0.00,VWS V14.01,2013-10-01 04:16:00,
2013-10-01 00:21:00,80.7,72.4,29.99,ESE,109,1.0,3.0,76,0.00,,FEW021,0.00,0.00,VWS V14.01,2013-10-01 04:21:00,
2013-10-01 00:26:00,80.7,72.4,29.99,ESE,109,2.0,3.0,76,0.00,,FEW021,0.00,0.00,VWS V14.01,2013-10-01 04:26:00,
2013-10-01 00:31:00,80.6,72.3,29.99,ESE,115,1.0,4.0,76,0.00,,FEW021,0.00,0.00,VWS V14.01,2013-10-01 04:31:00,
2013-10-01 00:36:00,80.5,72.6,29.99,East,97,2.0,2.0,77,0.00,,FEW021,0.00,0.00,VWS V14.01,2013-10-01 04:36:00,
2013-10-01 00:41:00,80.4,72.5,29.98,East,96,2.0,3.0,77,0.00,,FEW021,0.00,0.00,VWS V14.01,2013-10-01 04:41:00,
2013-10-01 00:46:00,80.3,72.4,29.98,East,88,1.0,3.0,77,0.00,,FEW021,0.00,0.00,VWS V14.01,2013-10-01 04:46:00,
2013-10-01 00:51:00,80.2,72.3,29.98,ESE,116,1.0,3.0,77,0.00,,FEW021,0.00,0.00,VWS V14.01,2013-10-01 04:51:00,
2013-10-01 00:56:00,80.2,72.3,29.98,ENE,69,1.0,2.0,77,0.00,,FEW021,0.00,0.00,VWS V14.01,2013-10-01 04:56:00,
2013-10-01 01:01:00,80.1,72.2,29.98,SE,133,2.0,4.0,77,0.00,,FEW021,0.00,0.00,VWS V14.01,2013-10-01 05:01:00,
2013-10-01 01:06:00,80.1,72.2,29.98,ESE,119,0.0,3.0,77,0.00,,FEW021,0.00,0.00,VWS V14.01,2013-10-01 05:06:00,
2013-10-01 01:11:00,80.0,72.5,29.98,East,87,1.0,2.0,78,0.00,,FEW021,0.00,0.00,VWS V14.01,2013-10-01 05:11:00,
2013-10-01 01:16:00,79.9,72.4,29.98,East,88,1.0,5.0,78,0.00,,FEW021,0.00,0.00,VWS V14.01,2013-10-01 05:16:00,
2013-10-01 01:21:00,79.9,72.4,29.98,East,92,0.0,2.0,78,0.00,,FEW021,0.00,0.00,VWS V14.01,2013-10-01 05:21:00,
2013-10-01 01:26:00,79.8,71.9,29.98,ENE,67,0.0,2.0,77,0.00,,FEW021,0.00,0.00,VWS V14.01,2013-10-01 05:26:00,
2013-10-01 01:31:00,79.7,72.2,29.98,NE,53,0.0,2.0,78,0.00,,FEW021,0.00,0.00,VWS V14.01,2013-10-01 05:31:00,
2013-10-01 01:36:00,79.5,72.0,29.98,ENE,66,0.0,0.0,78,0.00,,FEW021,0.00,0.00,VWS V14.01,2013-10-01 05:36:00,
2013-10-01 01:41:00,79.4,71.9,29.98,ENE,65,0.0,0.0,78,0.00,,FEW021,0.00,0.00,VWS V14.01,2013-10-01 05:41:00,
2013-10-01 01:46:00,79.3,72.2,29.98,ENE,65,0.0,1.0,79,0.00,,FEW021,0.00,0.00,VWS V14.01,2013-10-01 05:46:00,
2013-10-01 01:51:00,79.2,72.1,29.98,ENE,66,0.0,1.0,79,0.00,,FEW021,0.00,0.00,VWS V14.01,2013-10-01 05:51:00,
2013-10-01 01:56:00,79.1,72.0,29.98,ENE,65,0.0,1.0,79,0.00,,FEW021,0.00,0.00,VWS V14.01,2013-10-01 05:56:00,
2013-10-01 02:01:00,78.9,72.2,29.98,ENE,65,0.0,1.0,80,0.00,,FEW021,0.00,0.00,VWS V14.01,2013-10-01 06:01:00,
2013-10-01 02:06:00,78.8,72.1,29.98,ENE,66,0.0,1.0,80,0.00,,FEW021,0.00,0.00,VWS V14.01,2013-10-01 06:06:00,
2013-10-01 02:11:00,78.7,72.0,29.98,ENE,65,0.0,0.0,80,0.00,,FEW021,0.00,0.00,VWS V14.01,2013-10-01 06:11:00,
2013-10-01 02:16:00,78.5,71.8,29.97,ENE,65,0.0,0.0,80,0.00,,FEW021,0.00,0.00,VWS V14.01,2013-10-01 06:16:00,
2013-10-01 02:21:00,78.3,72.0,29.98,ENE,66,0.0,0.0,81,0.00,,FEW021,0.00,0.00,VWS V14.01,2013-10-01 06:21:00,
2013-10-01 02:26:00,78.0,71.7,29.98,ENE,66,0.0,0.0,81,0.00,,FEW021,0.00,0.00,VWS V14.01,2013-10-01 06:26:00,
2013-10-01 02:31:00,77.8,71.9,29.98,ENE,66,0.0,0.0,82,0.00,,FEW021,0.00,0.00,VWS V14.01,2013-10-01 06:31:00,
2013-10-01 02:36:00,77.5,71.6,29.97,ENE,66,0.0,0.0,82,0.00,,FEW021,0.00,0.00,VWS V14.01,2013-10-01 06:36:00,
2013-10-01 02:41:00,77.3,71.7,29.97,ENE,66,0.0,0.0,83,0.00,,FEW021,0.00,0.00,VWS V14.01,2013-10-01 06:41:00,
2013-10-01 02:46:00,77.0,71.4,29.97,ENE,66,0.0,0.0,83,0.00,,FEW021,0.00,0.00,VWS V14.01,2013-10-01 06:46:00,
2013-10-01 02:51:00,76.9,71.7,29.97,ENE,66,0.0,0.0,84,0.00,,FEW021,0.00,0.00,VWS V14.01,2013-10-01 06:51:00,
2013-10-01 02:56:00,76.8,71.6,29.97,ENE,65,0.0,0.0,84,0.00,,FEW021,0.00,0.00,VWS V14.01,2013-10-01 06:56:00,
2013-10-01 03:01:00,76.8,71.6,29.97,ENE,66,0.0,0.0,84,0.00,,FEW021,0.00,0.00,VWS V14.01,2013-10-01 07:01:00,
2013-10-01 03:06:00,76.8,71.6,29.97,ENE,66,0.0,1.0,84,0.00,,FEW021,0.00,0.00,VWS V14.01,2013-10-01 07:06:00,
2013-10-01 03:11:00,76.9,71.3,29.97,ENE,65,0.0,0.0,83,0.00,,FEW021,0.00,0.00,VWS V14.01,2013-10-01 07:11:00,
2013-10-01 03:16:00,76.7,71.2,29.97,ENE,66,0.0,0.0,83,0.00,,FEW021,0.00,0.00,VWS V14.01,2013-10-01 07:16:00,
2013-10-01 03:21:00,76.7,71.5,29.97,ENE,66,0.0,1.0,84,0.00,,FEW021,0.00,0.00,VWS V14.01,2013-10-01 07:21:00,
2013-10-01 03:26:00,76.5,71.3,29.96,ENE,66,1.0,1.0,84,0.00,,FEW021,0.00,0.00,VWS V14.01,2013-10-01 07:26:00,
2013-10-01 03:31:00,76.5,71.3,29.96,ENE,66,1.0,2.0,84,0.00,,FEW021,0.00,0.00,VWS V14.01,2013-10-01 07:31:00,
2013-10-01 03:36:00,76.5,71.3,29.96,ENE,66,0.0,0.0,84,0.00,,FEW021,0.00,0.00,VWS V14.01,2013-10-01 07:36:00,
2013-10-01 03:41:00,76.6,71.4,29.96,ENE,66,0.0,0.0,84,0.00,,FEW021,0.00,0.00,VWS V14.01,2013-10-01 07:41:00,
2013-10-01 03:46:00,76.3,70.8,29.95,ENE,66,0.0,0.0,83,0.00,,FEW021,0.00,0.00,VWS V14.01,2013-10-01 07:46:00,
2013-10-01 03:51:00,76.1,70.9,29.95,ENE,66,0.0,0.0,84,0.00,,FEW021,0.00,0.00,VWS V14.01,2013-10-01 07:51:00,
2013-10-01 03:56:00,76.0,70.8,29.96,ENE,66,0.0,0.0,84,0.00,,FEW021,0.00,0.00,VWS V14.01,2013-10-01 07:56:00,
2013-10-01 04:01:00,75.8,71.0,29.96,ENE,66,0.0,0.0,85,0.00,,FEW021,0.00,0.00,VWS V14.01,2013-10-01 08:01:00,
2013-10-01 04:06:00,75.7,71.2,29.96,ENE,66,0.0,0.0,86,0.00,,FEW021,0.00,0.00,VWS V14.01,2013-10-01 08:06:00,
2013-10-01 04:11:00,75.6,71.1,29.96,ENE,66,0.0,0.0,86,0.00,,FEW021,0.00,0.00,VWS V14.01,2013-10-01 08:11:00,
2013-10-01 04:16:00,75.4,70.9,29.96,ENE,66,0.0,0.0,86,0.00,,FEW021,0.00,0.00,VWS V14.01,2013-10-01 08:16:00,
2013-10-01 04:21:00,75.3,70.8,29.95,ENE,65,0.0,0.0,86,0.00,,FEW021,0.00,0.00,VWS V14.01,2013-10-01 08:21:00,
2013-10-01 04:26:00,75.3,71.2,29.96,ENE,66,0.0,0.0,87,0.00,,FEW021,0.00,0.00,VWS V14.01,2013-10-01 08:26:00,
2013-10-01 04:31:00,75.3,71.2,29.96,ENE,65,0.0,1.0,87,0.00,,FEW021,0.00,0.00,VWS V14.01,2013-10-01 08:31:00,
2013-10-01 04:36:00,75.4,70.9,29.96,ENE,66,0.0,0.0,86,0.00,,FEW021,0.00,0.00,VWS V14.01,2013-10-01 08:36:00,
2013-10-01 04:42:00,75.3,70.8,29.96,ENE,66,0.0,0.0,86,0.00,,FEW021,0.00,0.00,VWS V14.01,2013-10-01 08:42:00,
2013-10-01 04:47:00,75.3,70.8,29.96,ENE,65,0.0,0.0,86,0.00,,FEW021,0.00,0.00,VWS V14.01,2013-10-01 08:47:00,
2013-10-01 04:52:00,75.2,71.1,29.96,ENE,66,0.0,0.0,87,0.00,,FEW021,0.00,0.00,VWS V14.01,2013-10-01 08:52:00,
2013-10-01 04:57:00,75.2,71.4,29.96,ENE,66,0.0,0.0,88,0.00,,FEW021,0.00,0.00,VWS V14.01,2013-10-01 08:57:00,
2013-10-01 05:02:00,75.3,71.2,29.95,ENE,66,0.0,0.0,87,0.00,,FEW021,0.00,0.00,VWS V14.01,2013-10-01 09:02:00,
2013-10-01 05:07:00,75.2,71.1,29.96,ENE,66,0.0,1.0,87,0.00,,FEW021,0.00,0.00,VWS V14.01,2013-10-01 09:07:00,
2013-10-01 05:12:00,75.2,71.1,29.96,ENE,66,0.0,0.0,87,0.00,,FEW021,0.00,0.00,VWS V14.01,2013-10-01 09:12:00,
2013-10-01 05:17:00,75.2,71.4,29.96,ENE,66,0.0,0.0,88,0.00,,FEW021,0.00,0.00,VWS V14.01,2013-10-01 09:17:00,
2013-10-01 05:22:00,75.3,71.5,29.96,ENE,66,0.0,1.0,88,0.00,,FEW021,0.00,0.00,VWS V14.01,2013-10-01 09:22:00,
2013-10-01 05:27:00,75.4,71.6,29.97,ENE,66,0.0,1.0,88,0.00,,FEW021,0.00,0.00,VWS V14.01,2013-10-01 09:27:00,
2013-10-01 05:32:00,75.4,71.6,29.97,ENE,66,0.0,0.0,88,0.00,,FEW021,0.00,0.00,VWS V14.01,2013-10-01 09:32:00,
2013-10-01 05:37:00,75.4,71.6,29.97,ENE,66,0.0,0.0,88,0.00,,FEW021,0.00,0.00,VWS V14.01,2013-10-01 09:37:00,
2013-10-01 05:42:00,75.3,71.5,29.97,ENE,66,0.0,0.0,88,0.00,,FEW021,0.00,0.00,VWS V14.01,2013-10-01 09:42:00,
2013-10-01 05:47:00,75.2,71.4,29.97,ENE,66,0.0,0.0,88,0.00,,FEW021,0.00,0.00,VWS V14.01,2013-10-01 09:47:00,
2013-10-01 05:52:00,75.0,71.2,29.97,ENE,66,0.0,0.0,88,0.00,,FEW021,0.00,0.00,VWS V14.01,2013-10-01 09:52:00,
2013-10-01 05:57:00,75.1,71.6,29.97,ENE,66,0.0,0.0,89,0.00,,FEW021,0.00,0.00,VWS V14.01,2013-10-01 09:57:00,
2013-10-01 06:02:00,75.0,71.5,29.97,ENE,66,0.0,0.0,89,0.00,,FEW021,0.00,0.00,VWS V14.01,2013-10-01 10:02:00,
2013-10-01 06:07:00,74.9,71.4,29.97,ENE,65,0.0,0.0,89,0.00,,FEW021,0.00,0.00,VWS V14.01,2013-10-01 10:07:00,
2013-10-01 06:12:00,74.8,71.3,29.97,ENE,66,0.0,0.0,89,0.00,,FEW021,0.00,0.00,VWS V14.01,2013-10-01 10:12:00,
2013-10-01 06:17:00,74.8,71.7,29.97,ENE,65,0.0,0.0,90,0.00,,FEW021,0.00,0.00,VWS V14.01,2013-10-01 10:17:00,
2013-10-01 06:22:00,74.8,71.7,29.97,ENE,66,1.0,1.0,90,0.00,,FEW021,0.00,0.00,VWS V14.01,2013-10-01 10:22:00,
2013-10-01 06:27:00,74.8,71.7,29.97,ENE,66,1.0,2.0,90,0.00,,FEW021,0.00,0.00,VWS V14.01,2013-10-01 10:27:00,
2013-10-01 06:32:00,75.0,72.2,29.97,ENE,66,0.0,0.0,91,0.00,,FEW021,0.00,0.00,VWS V14.01,2013-10-01 10:32:00,
2013-10-01 06:37:00,75.1,72.3,29.98,ENE,66,0.0,0.0,91,0.00,,FEW021,0.00,0.00,VWS V14.01,2013-10-01 10:37:00,
2013-10-01 06:42:00,75.2,72.1,29.98,ENE,66,0.0,0.0,90,0.00,,FEW021,0.00,0.00,VWS V14.01,2013-10-01 10:42:00,
2013-10-01 06:47:00,75.2,72.1,29.98,ENE,66,0.0,0.0,90,0.00,,FEW021,0.00,0.00,VWS V14.01,2013-10-01 10:47:00,
2013-10-01 06:52:00,75.3,72.2,29.98,ENE,66,0.0,0.0,90,0.00,,FEW021,0.00,0.00,VWS V14.01,2013-10-01 10:52:00,
2013-10-01 06:57:00,75.3,72.2,29.98,ENE,66,0.0,0.0,90,0.00,,FEW021,0.00,0.00,VWS V14.01,2013-10-01 10:57:00,
2013-10-01 07:02:00,75.3,72.2,29.98,ENE,66,0.0,0.0,90,0.00,,FEW021,0.00,0.00,VWS V14.01,2013-10-01 11:02:00,
2013-10-01 07:07:00,75.2,72.1,29.98,ENE,66,0.0,0.0,90,0.00,,FEW021,0.00,0.00,VWS V14.01,2013-10-01 11:07:00,
2013-10-01 07:12:00,75.2,72.4,29.98,ENE,66,0.0,0.0,91,0.00,,FEW021,0.00,0.00,VWS V14.01,2013-10-01 11:12:00,
2013-10-01 07:17:00,75.2,72.4,29.98,ENE,66,0.0,0.0,91,0.00,,FEW021,0.00,5.00,VWS V14.01,2013-10-01 11:17:00,
2013-10-01 07:22:00,75.2,72.4,29.98,ENE,66,0.0,0.0,91,0.00,,FEW021,0.00,7.00,VWS V14.01,2013-10-01 11:22:00,
2013-10-01 07:28:00,75.3,72.5,29.98,ENE,66,0.0,0.0,91,0.00,,FEW021,0.00,11.00,VWS V14.01,2013-10-01 11:28:00,
2013-10-01 07:33:00,75.4,72.6,29.98,ENE,66,0.0,0.0,91,0.00,,FEW021,0.00,14.00,VWS V14.01,2013-10-01 11:33:00,
2013-10-01 07:38:00,75.5,72.7,29.98,ENE,66,0.0,0.0,91,0.00,,FEW021,0.00,18.00,VWS V14.01,2013-10-01 11:38:00,
2013-10-01 07:43:00,75.6,72.8,29.98,ENE,66,0.0,0.0,91,0.00,,FEW021,0.00,26.00,VWS V14.01,2013-10-01 11:43:00,
2013-10-01 07:48:00,75.8,73.0,29.98,ENE,66,0.0,1.0,91,0.00,,FEW021,0.00,25.00,VWS V14.01,2013-10-01 11:48:00,
2013-10-01 07:53:00,76.2,73.4,29.98,ENE,66,0.0,1.0,91,0.00,,FEW021,0.00,23.00,VWS V14.01,2013-10-01 11:53:00,
2013-10-01 07:58:00,76.7,73.9,29.99,ENE,66,2.0,2.0,91,0.00,,FEW021,0.00,26.00,VWS V14.01,2013-10-01 11:58:00,
2013-10-01 08:03:00,77.2,73.7,29.99,ENE,66,0.0,2.0,89,0.00,,FEW021,0.00,26.00,VWS V14.01,2013-10-01 12:03:00,
2013-10-01 08:08:00,77.6,73.8,29.99,ENE,65,0.0,1.0,88,0.00,,FEW021,0.00,30.00,VWS V14.01,2013-10-01 12:08:00,
2013-10-01 08:13:00,77.9,74.1,29.99,ENE,66,1.0,2.0,88,0.00,,FEW021,0.00,40.00,VWS V14.01,2013-10-01 12:13:00,
2013-10-01 08:18:00,78.4,74.6,29.99,NE,50,2.0,2.0,88,0.00,,FEW021,0.00,42.00,VWS V14.01,2013-10-01 12:18:00,
2013-10-01 08:23:00,79.0,74.8,29.99,NE,50,1.0,2.0,87,0.00,,FEW021,0.00,39.00,VWS V14.01,2013-10-01 12:23:00,
2013-10-01 08:28:00,79.6,74.7,29.99,NE,38,1.0,4.0,85,0.00,,FEW021,0.00,51.00,VWS V14.01,2013-10-01 12:28:00,
2013-10-01 08:33:00,80.1,74.8,29.99,NE,48,3.0,5.0,84,0.00,,FEW021,0.00,39.00,VWS V14.01,2013-10-01 12:33:00,
2013-10-01 08:38:00,80.5,75.2,29.99,East,96,2.0,3.0,84,0.00,,FEW021,0.00,42.00,VWS V14.01,2013-10-01 12:38:00,
2013-10-01 08:43:00,80.9,75.3,30.00,NE,46,3.0,5.0,83,0.00,,FEW021,0.00,47.00,VWS V14.01,2013-10-01 12:43:00,
2013-10-01 08:48:00,81.4,75.0,29.99,NE,47,1.0,4.0,81,0.00,,FEW021,0.00,244.00,VWS V14.01,2013-10-01 12:48:00,
2013-10-01 08:53:00,82.0,75.2,30.00,East,92,2.0,4.0,80,0.00,,FEW021,0.00,267.00,VWS V14.01,2013-10-01 12:53:00,
2013-10-01 08:58:00,82.6,75.1,30.00,NE,39,5.0,6.0,78,0.00,,FEW021,0.00,283.00,VWS V14.01,2013-10-01 12:58:00,
2013-10-01 09:03:00,83.0,75.1,30.00,East,94,6.0,10.0,77,0.00,,FEW021,0.00,299.00,VWS V14.01,2013-10-01 13:03:00,
2013-10-01 09:08:00,83.3,75.3,30.01,NE,40,3.0,9.0,77,0.00,,FEW021,0.00,332.00,VWS V14.01,2013-10-01 13:08:00,
2013-10-01 09:13:00,83.5,75.1,30.00,East,98,3.0,8.0,76,0.00,,FEW021,0.00,355.00,VWS V14.01,2013-10-01 13:13:00,
2013-10-01 09:18:00,83.9,75.5,30.01,NE,44,5.0,8.0,76,0.00,,FEW021,0.00,371.00,VWS V14.01,2013-10-01 13:18:00,
2013-10-01 09:23:00,84.2,75.0,30.01,East,90,6.0,8.0,74,0.00,,FEW021,0.00,90.00,VWS V14.01,2013-10-01 13:23:00,
2013-10-01 09:28:00,84.0,75.2,30.01,ENE,63,2.0,5.0,75,0.00,,FEW021,0.00,439.00,VWS V14.01,2013-10-01 13:28:00,
2013-10-01 09:33:00,84.4,75.2,30.01,NNE,23,4.0,7.0,74,0.00,,FEW021,0.00,439.00,VWS V14.01,2013-10-01 13:33:00,
2013-10-01 09:38:00,84.7,75.5,30.01,NE,47,2.0,5.0,74,0.00,,FEW021,0.00,471.00,VWS V14.01,2013-10-01 13:38:00,
2013-10-01 09:43:00,84.7,75.1,30.01,NE,40,4.0,8.0,73,0.00,,FEW021,0.00,492.00,VWS V14.01,2013-10-01 13:43:00,
2013-10-01 09:48:00,85.1,75.5,30.01,NE,51,4.0,9.0,73,0.00,,FEW021,0.00,464.00,VWS V14.01,2013-10-01 13:48:00,
2013-10-01 09:53:00,85.3,75.2,30.01,NE,46,2.0,9.0,72,0.00,,FEW021,0.00,515.00,VWS V14.01,2013-10-01 13:53:00,
2013-10-01 09:58:00,85.3,75.2,30.01,ENE,68,3.0,7.0,72,0.00,,FEW021,0.00,527.00,VWS V14.01,2013-10-01 13:58:00,
2013-10-01 10:03:00,85.7,75.6,30.01,NE,38,5.0,8.0,72,0.00,,FEW021,0.00,649.00,VWS V14.01,2013-10-01 14:03:00,
2013-10-01 10:08:00,85.9,75.4,30.02,NE,43,3.0,6.0,71,0.00,,FEW021,0.00,682.00,VWS V14.01,2013-10-01 14:08:00,
2013-10-01 10:13:00,86.1,75.6,30.02,NE,40,3.0,8.0,71,0.00,,FEW021,0.00,691.00,VWS V14.01,2013-10-01 14:13:00,
2013-10-01 10:18:00,86.1,75.6,30.02,ESE,117,3.0,8.0,71,0.00,,FEW021,0.00,698.00,VWS V14.01,2013-10-01 14:18:00,
2013-10-01 10:23:00,86.2,75.7,30.02,NE,42,4.0,8.0,71,0.00,,FEW021,0.00,731.00,VWS V14.01,2013-10-01 14:23:00,
2013-10-01 10:28:00,86.4,75.0,30.02,East,84,3.0,7.0,69,0.00,,FEW021,0.00,151.00,VWS V14.01,2013-10-01 14:28:00,
2013-10-01 10:33:00,86.5,75.1,30.02,NE,36,10.0,11.0,69,0.00,,FEW021,0.00,176.00,VWS V14.01,2013-10-01 14:33:00,
2013-10-01 10:38:00,85.7,74.4,30.01,NNE,30,6.0,8.0,69,0.00,,FEW021,0.00,127.00,VWS V14.01,2013-10-01 14:38:00,
2013-10-01 10:43:00,85.5,75.0,30.01,NE,37,3.0,9.0,71,0.00,,FEW021,0.00,149.00,VWS V14.01,2013-10-01 14:43:00,
2013-10-01 10:48:00,85.8,74.5,30.02,NE,43,6.0,8.0,69,0.00,,FEW021,0.00,700.00,VWS V14.01,2013-10-01 14:48:00,
2013-10-01 10:53:00,86.4,75.0,30.02,NE,37,6.0,10.0,69,0.00,,FEW021,0.00,710.00,VWS V14.01,2013-10-01 14:53:00,
2013-10-01 10:58:00,86.7,74.9,30.02,NE,47,5.0,7.0,68,0.00,,FEW021,0.00,726.00,VWS V14.01,2013-10-01 14:58:00,
2013-10-01 11:03:00,87.2,75.8,30.02,ENE,69,3.0,6.0,69,0.00,,FEW021,0.00,763.00,VWS V14.01,2013-10-01 15:03:00,
2013-10-01 11:08:00,87.6,74.8,30.02,NE,51,3.0,13.0,66,0.00,,FEW021,0.00,752.00,VWS V14.01,2013-10-01 15:08:00,
2013-10-01 11:13:00,87.4,74.2,30.02,NE,37,2.0,10.0,65,0.00,,FEW021,0.00,844.00,VWS V14.01,2013-10-01 15:13:00,
2013-10-01 11:19:00,87.7,74.9,30.02,ENE,61,8.0,10.0,66,0.00,,FEW021,0.00,896.00,VWS V14.01,2013-10-01 15:19:00,
2013-10-01 11:24:00,87.5,74.8,30.02,SSE,153,4.0,11.0,66,0.00,,FEW021,0.00,853.00,VWS V14.01,2013-10-01 15:24:00,
2013-10-01 11:29:00,87.6,74.8,30.02,NNE,31,4.0,8.0,66,0.00,,FEW021,0.00,817.00,VWS V14.01,2013-10-01 15:29:00,
2013-10-01 11:34:00,88.4,75.6,30.02,ENE,72,5.0,9.0,66,0.00,,FEW021,0.00,863.00,VWS V14.01,2013-10-01 15:34:00,
2013-10-01 11:39:00,88.4,74.7,30.02,NE,34,9.0,13.0,64,0.00,,FEW021,0.00,882.00,VWS V14.01,2013-10-01 15:39:00,
2013-10-01 11:44:00,88.6,74.4,30.02,NE,36,6.0,10.0,63,0.00,,FEW021,0.00,891.00,VWS V14.01,2013-10-01 15:44:00,
2013-10-01 11:49:00,88.2,75.0,30.02,ENE,71,5.0,7.0,65,0.00,,FEW021,0.00,919.00,VWS V14.01,2013-10-01 15:49:00,
2013-10-01 11:54:00,88.4,74.7,30.02,ESE,119,4.0,10.0,64,0.00,,FEW021,0.00,925.00,VWS V14.01,2013-10-01 15:54:00,
2013-10-01 11:59:00,87.7,73.6,30.02,ENE,69,4.0,12.0,63,0.00,,FEW021,0.00,297.00,VWS V14.01,2013-10-01 15:59:00,
2013-10-01 12:04:00,87.1,73.4,30.02,NE,36,7.0,11.0,64,0.00,,FEW021,0.00,229.00,VWS V14.01,2013-10-01 16:04:00,
2013-10-01 12:09:00,87.4,74.2,30.02,ENE,74,11.0,12.0,65,0.00,,FEW021,0.00,264.00,VWS V14.01,2013-10-01 16:09:00,
2013-10-01 12:14:00,86.7,74.0,30.02,NE,38,6.0,10.0,66,0.00,,FEW021,0.00,229.00,VWS V14.01,2013-10-01 16:14:00,
2013-10-01 12:19:00,86.4,73.7,30.02,NNE,30,4.0,14.0,66,0.00,,FEW021,0.00,213.00,VWS V14.01,2013-10-01 16:19:00,
2013-10-01 12:24:00,86.4,74.2,30.02,NNE,31,4.0,8.0,67,0.00,,FEW021,0.00,251.00,VWS V14.01,2013-10-01 16:24:00,
2013-10-01 12:29:00,86.9,74.6,30.02,NE,39,11.0,12.0,67,0.00,,FEW021,0.00,930.00,VWS V14.01,2013-10-01 16:29:00,
2013-10-01 12:31:00,87.2,74.5,30.02,NE,51,4.0,12.0,66,0.00,,FEW021,0.00,258.00,VWS V14.01,2013-10-01 16:31:00,
2013-10-01 12:36:00,86.5,73.3,30.02,NNE,28,5.0,9.0,65,0.00,,FEW021,0.00,251.00,VWS V14.01,2013-10-01 16:36:00,
2013-10-01 12:41:00,86.2,74.4,30.02,NNE,28,11.0,11.0,68,0.00,,FEW021,0.00,237.00,VWS V14.01,2013-10-01 16:41:00,
2013-10-01 12:46:00,87.0,74.3,30.02,NE,39,10.0,10.0,66,0.00,,FEW021,0.00,237.00,VWS V14.01,2013-10-01 16:46:00,
2013-10-01 12:51:00,86.9,74.2,30.02,ENE,70,4.0,10.0,66,0.00,,FEW021,0.00,243.00,VWS V14.01,2013-10-01 16:51:00,
2013-10-01 12:56:00,86.8,73.6,30.01,NNE,17,8.0,13.0,65,0.00,,FEW021,0.00,946.00,VWS V14.01,2013-10-01 16:56:00,
2013-10-01 13:01:00,87.3,73.6,30.01,NE,38,6.0,10.0,64,0.00,,FEW021,0.00,1037.00,VWS V14.01,2013-10-01 17:01:00,
2013-10-01 13:06:00,87.6,73.9,30.01,NE,42,7.0,11.0,64,0.00,,FEW021,0.00,1046.00,VWS V14.01,2013-10-01 17:06:00,
2013-10-01 13:11:00,87.6,72.5,30.01,NE,47,4.0,13.0,61,0.00,,FEW021,0.00,983.00,VWS V14.01,2013-10-01 17:11:00,
2013-10-01 13:16:00,87.4,72.8,30.01,ENE,69,2.0,13.0,62,0.00,,FEW021,0.00,299.00,VWS V14.01,2013-10-01 17:16:00,
2013-10-01 13:21:00,87.7,73.1,30.01,NNE,33,7.0,13.0,62,0.00,,FEW021,0.00,935.00,VWS V14.01,2013-10-01 17:21:00,
2013-10-01 13:26:00,87.4,74.7,30.01,NNE,26,7.0,13.0,66,0.00,,FEW021,0.00,935.00,VWS V14.01,2013-10-01 17:26:00,
2013-10-01 13:31:00,88.0,74.3,30.01,NE,49,4.0,8.0,64,0.00,,FEW021,0.00,1020.00,VWS V14.01,2013-10-01 17:31:00,
2013-10-01 13:36:00,88.6,73.9,30.00,ENE,74,7.0,13.0,62,0.00,,FEW021,0.00,1018.00,VWS V14.01,2013-10-01 17:36:00,
2013-10-01 13:41:00,88.7,73.5,30.00,ENE,74,4.0,9.0,61,0.00,,FEW021,0.00,385.00,VWS V14.01,2013-10-01 17:41:00,
2013-10-01 13:46:00,87.8,73.6,30.00,ENE,63,3.0,12.0,63,0.00,,FEW021,0.00,202.00,VWS V14.01,2013-10-01 17:46:00,
2013-10-01 13:51:00,87.8,75.5,29.99,ENE,70,5.0,7.0,67,0.00,,FEW021,0.00,976.00,VWS V14.01,2013-10-01 17:51:00,
2013-10-01 13:56:00,88.0,75.2,29.99,NE,36,6.0,11.0,66,0.00,,FEW021,0.00,995.00,VWS V14.01,2013-10-01 17:56:00,
2013-10-01 14:01:00,88.5,75.2,29.99,NE,38,8.0,11.0,65,0.00,,FEW021,0.00,949.00,VWS V14.01,2013-10-01 18:01:00,
2013-10-01 14:06:00,88.5,75.2,29.99,SE,140,7.0,11.0,65,0.00,,FEW021,0.00,1013.00,VWS V14.01,2013-10-01 18:06:00,
2013-10-01 14:12:00,89.0,73.3,29.99,NE,49,7.0,10.0,60,0.00,,FEW021,0.00,969.00,VWS V14.01,2013-10-01 18:12:00,
2013-10-01 14:17:00,89.0,74.3,29.99,NE,34,8.0,13.0,62,0.00,,FEW021,0.00,969.00,VWS V14.01,2013-10-01 18:17:00,
2013-10-01 14:22:00,88.1,74.4,29.99,NNE,15,6.0,12.0,64,0.00,,FEW021,0.00,962.00,VWS V14.01,2013-10-01 18:22:00,
2013-10-01 14:27:00,87.3,74.6,29.98,NNE,31,8.0,14.0,66,0.00,,FEW021,0.00,988.00,VWS V14.01,2013-10-01 18:27:00,
2013-10-01 14:32:00,87.0,74.3,29.99,NE,38,7.0,12.0,66,0.00,,FEW021,0.00,313.00,VWS V14.01,2013-10-01 18:32:00,
2013-10-01 14:37:00,87.0,74.7,29.98,East,90,9.0,11.0,67,0.00,,FEW021,0.00,1037.00,VWS V14.01,2013-10-01 18:37:00,
2013-10-01 14:42:00,87.1,74.4,29.98,ENE,70,4.0,8.0,66,0.00,,FEW021,0.00,942.00,VWS V14.01,2013-10-01 18:42:00,
2013-10-01 14:47:00,87.4,74.7,29.98,NE,35,9.0,13.0,66,0.00,,FEW021,0.00,241.00,VWS V14.01,2013-10-01 18:47:00,
2013-10-01 14:52:00,86.9,73.3,29.98,NE,41,8.0,11.0,64,0.00,,FEW021,0.00,909.00,VWS V14.01,2013-10-01 18:52:00,
2013-10-01 14:57:00,87.4,75.1,29.98,ENE,71,7.0,10.0,67,0.00,,FEW021,0.00,872.00,VWS V14.01,2013-10-01 18:57:00,
2013-10-01 15:02:00,87.6,74.4,29.98,NE,34,5.0,13.0,65,0.00,,FEW021,0.00,919.00,VWS V14.01,2013-10-01 19:02:00,
2013-10-01 15:07:00,87.2,74.5,29.98,East,94,5.0,11.0,66,0.00,,FEW021,0.00,239.00,VWS V14.01,2013-10-01 19:07:00,
2013-10-01 15:12:00,86.7,74.0,29.98,NE,52,10.0,13.0,66,0.00,,FEW021,0.00,193.00,VWS V14.01,2013-10-01 19:12:00,
2013-10-01 15:17:00,86.8,74.1,29.98,East,90,2.0,9.0,66,0.00,,FEW021,0.00,900.00,VWS V14.01,2013-10-01 19:17:00,
2013-10-01 15:22:00,87.4,74.2,29.98,NE,45,4.0,9.0,65,0.00,,FEW021,0.00,902.00,VWS V14.01,2013-10-01 19:22:00,
2013-10-01 15:27:00,87.2,74.0,29.98,NE,53,5.0,12.0,65,0.00,,FEW021,0.00,902.00,VWS V14.01,2013-10-01 19:27:00,
2013-10-01 15:32:00,86.5,73.8,29.98,NE,34,7.0,13.0,66,0.00,,FEW021,0.00,817.00,VWS V14.01,2013-10-01 19:32:00,
2013-10-01 15:37:00,86.6,73.4,29.98,ESE,110,3.0,18.0,65,0.00,,FEW021,0.00,220.00,VWS V14.01,2013-10-01 19:37:00,
2013-10-01 15:42:00,86.7,74.4,29.97,ESE,117,5.0,9.0,67,0.00,,FEW021,0.00,795.00,VWS V14.01,2013-10-01 19:42:00,
2013-10-01 15:47:00,87.3,74.1,29.97,ESE,119,8.0,13.0,65,0.00,,FEW021,0.00,751.00,VWS V14.01,2013-10-01 19:47:00,
2013-10-01 15:52:00,87.6,75.3,29.97,ENE,68,8.0,9.0,67,0.00,,FEW021,0.00,759.00,VWS V14.01,2013-10-01 19:52:00,
2013-10-01 15:57:00,87.4,74.2,29.97,NE,34,4.0,13.0,65,0.00,,FEW021,0.00,703.00,VWS V14.01,2013-10-01 19:57:00,
2013-10-01 16:02:00,86.6,73.4,29.97,NE,43,6.0,10.0,65,0.00,,FEW021,0.00,715.00,VWS V14.01,2013-10-01 20:02:00,
2013-10-01 16:07:00,86.9,74.6,29.97,NNE,30,9.0,9.0,67,0.00,,FEW021,0.00,694.00,VWS V14.01,2013-10-01 20:07:00,
2013-10-01 16:12:00,87.3,74.1,29.97,NE,34,8.0,14.0,65,0.00,,FEW021,0.00,721.00,VWS V14.01,2013-10-01 20:12:00,
2013-10-01 16:17:00,86.5,74.2,29.97,East,92,5.0,16.0,67,0.00,,FEW021,0.00,663.00,VWS V14.01,2013-10-01 20:17:00,
2013-10-01 16:22:00,86.4,74.2,29.97,ENE,75,5.0,8.0,67,0.00,,FEW021,0.00,703.00,VWS V14.01,2013-10-01 20:22:00,
2013-10-01 16:27:00,86.1,74.3,29.96,NNE,29,4.0,13.0,68,0.00,,FEW021,0.00,188.00,VWS V14.01,2013-10-01 20:27:00,
2013-10-01 16:32:00,85.8,74.0,29.96,NE,44,12.0,12.0,68,0.00,,FEW021,0.00,200.00,VWS V14.01,2013-10-01 20:32:00,
2013-10-01 16:37:00,85.4,73.6,29.96,NE,40,4.0,11.0,68,0.00,,FEW021,0.00,116.00,VWS V14.01,2013-10-01 20:37:00,
2013-10-01 16:42:00,84.9,74.0,29.96,ENE,67,7.0,11.0,70,0.00,,FEW021,0.00,577.00,VWS V14.01,2013-10-01 20:42:00,
2013-10-01 16:47:00,85.2,73.4,29.96,NE,43,5.0,9.0,68,0.00,,FEW021,0.00,561.00,VWS V14.01,2013-10-01 20:47:00,
2013-10-01 16:52:00,85.8,73.6,29.96,East,92,7.0,7.0,67,0.00,,FEW021,0.00,519.00,VWS V14.01,2013-10-01 20:52:00,
2013-10-01 16:57:00,85.9,73.2,29.96,NNE,33,12.0,12.0,66,0.00,,FEW021,0.00,501.00,VWS V14.01,2013-10-01 20:57:00,
2013-10-01 17:02:00,86.0,73.8,29.96,NE,41,4.0,8.0,67,0.00,,FEW021,0.00,489.00,VWS V14.01,2013-10-01 21:02:00,
2013-10-01 17:07:00,86.0,72.4,29.96,NE,51,2.0,6.0,64,0.00,,FEW021,0.00,461.00,VWS V14.01,2013-10-01 21:07:00,
2013-10-01 17:12:00,85.8,72.7,29.96,NE,42,4.0,9.0,65,0.00,,FEW021,0.00,443.00,VWS V14.01,2013-10-01 21:12:00,
2013-10-01 17:17:00,85.4,73.2,29.96,NNE,33,9.0,15.0,67,0.00,,FEW021,0.00,446.00,VWS V14.01,2013-10-01 21:17:00,
2013-10-01 17:22:00,85.0,72.8,29.97,East,88,7.0,13.0,67,0.00,,FEW021,0.00,113.00,VWS V14.01,2013-10-01 21:22:00,
2013-10-01 17:27:00,84.7,72.1,29.97,NE,41,6.0,9.0,66,0.00,,FEW021,0.00,163.00,VWS V14.01,2013-10-01 21:27:00,
2013-10-01 17:32:00,84.4,72.2,29.97,NNE,29,6.0,11.0,67,0.00,,FEW021,0.00,352.00,VWS V14.01,2013-10-01 21:32:00,
2013-10-01 17:37:00,84.7,72.5,29.97,NE,42,7.0,9.0,67,0.00,,FEW021,0.00,343.00,VWS V14.01,2013-10-01 21:37:00,
2013-10-01 17:42:00,85.0,72.8,29.97,NE,44,12.0,12.0,67,0.00,,FEW021,0.00,327.00,VWS V14.01,2013-10-01 21:42:00,
2013-10-01 17:47:00,84.7,73.0,29.97,ENE,71,12.0,13.0,68,0.00,,FEW021,0.00,246.00,VWS V14.01,2013-10-01 21:47:00,
2013-10-01 17:52:00,84.2,73.4,29.97,NE,51,4.0,8.0,70,0.00,,FEW021,0.00,271.00,VWS V14.01,2013-10-01 21:52:00,
2013-10-01 17:58:00,84.2,73.4,29.97,NE,49,3.0,11.0,70,0.00,,FEW021,0.00,276.00,VWS V14.01,2013-10-01 21:58:00,
2013-10-01 18:03:00,84.2,73.4,29.97,NE,38,6.0,13.0,70,0.00,,FEW021,0.00,206.00,VWS V14.01,2013-10-01 22:03:00,
2013-10-01 18:08:00,84.1,73.3,29.97,ENE,65,5.0,10.0,70,0.00,,FEW021,0.00,53.00,VWS V14.01,2013-10-01 22:08:00,
2013-10-01 18:13:00,83.6,73.2,29.97,NE,46,3.0,12.0,71,0.00,,FEW021,0.00,53.00,VWS V14.01,2013-10-01 22:13:00,
2013-10-01 18:18:00,83.3,73.3,29.97,NE,37,11.0,12.0,72,0.00,,FEW021,0.00,83.00,VWS V14.01,2013-10-01 22:18:00,
2013-10-01 18:23:00,83.2,73.7,29.98,ENE,69,5.0,12.0,73,0.00,,FEW021,0.00,167.00,VWS V14.01,2013-10-01 22:23:00,
2013-10-01 18:28:00,83.3,72.9,29.98,ENE,69,8.0,11.0,71,0.00,,FEW021,0.00,21.00,VWS V14.01,2013-10-01 22:28:00,
2013-10-01 18:33:00,83.0,73.1,29.98,NE,44,8.0,12.0,72,0.00,,FEW021,0.00,23.00,VWS V14.01,2013-10-01 22:33:00,
2013-10-01 18:38:00,82.7,73.2,29.99,NE,46,6.0,12.0,73,0.00,,FEW021,0.00,23.00,VWS V14.01,2013-10-01 22:38:00,
2013-10-01 18:43:00,82.5,73.0,29.99,NE,44,9.0,11.0,73,0.00,,FEW021,0.00,18.00,VWS V14.01,2013-10-01 22:43:00,
2013-10-01 18:48:00,82.4,72.9,29.99,NE,37,5.0,8.0,73,0.00,,FEW021,0.00,16.00,VWS V14.01,2013-10-01 22:48:00,
2013-10-01 18:53:00,82.4,73.3,29.99,NE,46,6.0,11.0,74,0.00,,FEW021,0.00,12.00,VWS V14.01,2013-10-01 22:53:00,
2013-10-01 18:58:00,82.3,73.2,29.99,ENE,69,3.0,11.0,74,0.00,,FEW021,0.00,9.00,VWS V14.01,2013-10-01 22:58:00,
2013-10-01 19:03:00,82.2,73.1,30.00,ENE,65,8.0,11.0,74,0.00,,FEW021,0.00,7.00,VWS V14.01,2013-10-01 23:03:00,
2013-10-01 19:08:00,82.1,73.0,30.00,NE,38,9.0,15.0,74,0.00,,FEW021,0.00,0.00,VWS V14.01,2013-10-01 23:08:00,
2013-10-01 19:13:00,82.1,73.4,30.00,NE,37,3.0,11.0,75,0.00,,FEW021,0.00,0.00,VWS V14.01,2013-10-01 23:13:00,
2013-10-01 19:18:00,82.1,73.4,30.00,NE,44,7.0,12.0,75,0.00,,FEW021,0.00,0.00,VWS V14.01,2013-10-01 23:18:00,
2013-10-01 19:20:00,82.1,73.4,30.00,NE,42,4.0,10.0,75,0.00,,FEW021,0.00,0.00,VWS V14.01,2013-10-01 23:20:00,
2013-10-01 19:25:00,82.0,73.3,30.00,NE,47,6.0,7.0,75,0.00,,FEW021,0.00,0.00,VWS V14.01,2013-10-01 23:25:00,
2013-10-01 19:30:00,82.0,73.3,30.00,NNE,28,3.0,12.0,75,0.00,,FEW021,0.00,0.00,VWS V14.01,2013-10-01 23:30:00,
2013-10-01 19:35:00,81.9,73.2,30.00,NNE,28,7.0,9.0,75,0.00,,FEW021,0.00,0.00,VWS V14.01,2013-10-01 23:35:00,
2013-10-01 19:40:00,81.9,73.2,30.00,ENE,67,5.0,12.0,75,0.00,,FEW021,0.00,0.00,VWS V14.01,2013-10-01 23:40:00,
2013-10-01 19:45:00,81.8,73.1,30.00,NE,49,5.0,11.0,75,0.00,,FEW021,0.00,0.00,VWS V14.01,2013-10-01 23:45:00,
2013-10-01 19:50:00,81.7,73.0,30.00,NNE,28,9.0,15.0,75,0.00,,FEW021,0.00,0.00,VWS V14.01,2013-10-01 23:50:00,
2013-10-01 19:55:00,81.7,73.0,29.99,NNE,31,5.0,9.0,75,0.00,,FEW021,0.00,0.00,VWS V14.01,2013-10-01 23:55:00,
2013-10-01 20:00:00,81.6,72.9,29.99,NE,38,4.0,4.0,75,0.00,,FEW021,0.00,0.00,VWS V14.01,2013-10-02 00:00:00,
2013-10-01 20:05:00,81.6,72.9,29.99,NE,50,7.0,11.0,75,0.00,,FEW021,0.00,0.00,VWS V14.01,2013-10-02 00:05:00,
2013-10-01 20:10:00,81.5,73.2,29.99,NE,37,4.0,9.0,76,0.00,,FEW021,0.00,0.00,VWS V14.01,2013-10-02 00:10:00,
2013-10-01 20:15:00,81.5,73.2,29.99,NE,44,9.0,9.0,76,0.00,,FEW021,0.00,0.00,VWS V14.01,2013-10-02 00:15:00,
2013-10-01 20:17:00,81.5,73.2,29.99,NE,37,8.0,13.0,76,0.00,,FEW021,0.00,0.00,VWS V14.01,2013-10-02 00:17:00,
2013-10-01 20:22:00,81.5,73.2,29.99,NE,38,5.0,9.0,76,0.00,,FEW021,0.00,0.00,VWS V14.01,2013-10-02 00:22:00,
2013-10-01 20:27:00,81.4,73.1,29.99,NNE,26,5.0,10.0,76,0.00,,FEW021,0.00,0.00,VWS V14.01,2013-10-02 00:27:00,
2013-10-01 20:32:00,81.3,73.0,29.99,NNE,31,6.0,11.0,76,0.00,,FEW021,0.00,0.00,VWS V14.01,2013-10-02 00:32:00,
2013-10-01 20:37:00,81.3,73.0,29.99,NNE,32,3.0,8.0,76,0.00,,FEW021,0.00,0.00,VWS V14.01,2013-10-02 00:37:00,
2013-10-01 20:42:00,81.3,73.0,30.00,NE,50,3.0,8.0,76,0.00,,FEW021,0.00,0.00,VWS V14.01,2013-10-02 00:42:00,
2013-10-01 20:47:00,81.3,73.0,30.00,NE,46,3.0,10.0,76,0.00,,FEW021,0.00,0.00,VWS V14.01,2013-10-02 00:47:00,
2013-10-01 20:52:00,81.2,73.3,30.00,NE,36,4.0,9.0,77,0.00,,FEW021,0.00,0.00,VWS V14.01,2013-10-02 00:52:00,
2013-10-01 20:57:00,81.2,73.3,30.00,NE,44,5.0,10.0,77,0.00,,FEW021,0.00,0.00,VWS V14.01,2013-10-02 00:57:00,
2013-10-01 21:02:00,81.3,73.4,30.00,East,83,6.0,8.0,77,0.00,,FEW021,0.00,0.00,VWS V14.01,2013-10-02 01:02:00,
2013-10-01 21:07:00,81.3,73.4,30.00,NE,46,6.0,10.0,77,0.00,,FEW021,0.00,0.00,VWS V14.01,2013-10-02 01:07:00,
2013-10-01 21:12:00,81.3,73.4,30.00,ENE,70,5.0,11.0,77,0.00,,FEW021,0.00,0.00,VWS V14.01,2013-10-02 01:12:00,
2013-10-01 21:17:00,81.4,73.5,30.00,NE,44,5.0,9.0,77,0.00,,FEW021,0.00,0.00,VWS V14.01,2013-10-02 01:17:00,
2013-10-01 21:22:00,81.3,73.4,30.01,NE,38,4.0,8.0,77,0.00,,FEW021,0.00,0.00,VWS V14.01,2013-10-02 01:22:00,
2013-10-01 21:27:00,81.3,73.4,30.01,NE,34,4.0,10.0,77,0.00,,FEW021,0.00,0.00,VWS V14.01,2013-10-02 01:27:00,
2013-10-01 21:32:00,81.2,73.3,30.01,NE,44,7.0,9.0,77,0.00,,FEW021,0.00,0.00,VWS V14.01,2013-10-02 01:32:00,
2013-10-01 21:37:00,81.2,73.3,30.01,NE,50,4.0,9.0,77,0.00,,FEW021,0.00,0.00,VWS V14.01,2013-10-02 01:37:00,
2013-10-01 21:42:00,81.2,73.3,30.02,NE,51,3.0,10.0,77,0.00,,FEW021,0.00,0.00,VWS V14.01,2013-10-02 01:42:00,
2013-10-01 21:47:00,81.2,73.3,30.02,NNE,30,5.0,12.0,77,0.00,,FEW021,0.00,0.00,VWS V14.01,2013-10-02 01:47:00,
2013-10-01 21:52:00,81.2,73.3,30.02,ENE,73,2.0,12.0,77,0.00,,FEW021,0.00,0.00,VWS V14.01,2013-10-02 01:52:00,
2013-10-01 21:57:00,81.2,73.3,30.02,ENE,72,7.0,13.0,77,0.00,,FEW021,0.00,0.00,VWS V14.01,2013-10-02 01:57:00,
2013-10-01 22:02:00,81.2,73.3,30.02,NE,47,5.0,10.0,77,0.00,,FEW021,0.00,0.00,VWS V14.01,2013-10-02 02:02:00,
2013-10-01 22:07:00,81.2,73.3,30.02,ENE,65,4.0,11.0,77,0.00,,FEW021,0.00,0.00,VWS V14.01,2013-10-02 02:07:00,
2013-10-01 22:12:00,81.2,73.3,30.02,NE,35,9.0,11.0,77,0.00,,FEW021,0.00,0.00,VWS V14.01,2013-10-02 02:12:00,
2013-10-01 22:16:00,81.2,73.3,30.02,East,95,5.0,13.0,77,0.00,,FEW021,0.00,0.00,VWS V14.01,2013-10-02 02:16:00,
2013-10-01 22:21:00,81.2,73.3,30.02,NE,52,4.0,11.0,77,0.00,,FEW021,0.00,0.00,VWS V14.01,2013-10-02 02:21:00,
2013-10-01 22:26:00,81.2,73.3,30.02,East,90,5.0,8.0,77,0.00,,FEW021,0.00,0.00,VWS V14.01,2013-10-02 02:26:00,
2013-10-01 22:32:00,81.3,73.4,30.02,NE,41,4.0,7.0,77,0.00,,FEW021,0.00,0.00,VWS V14.01,2013-10-02 02:32:00,
2013-10-01 22:37:00,81.3,73.4,30.02,ENE,73,5.0,10.0,77,0.00,,FEW021,0.00,0.00,VWS V14.01,2013-10-02 02:37:00,
2013-10-01 22:42:00,81.3,73.8,30.02,ENE,67,7.0,10.0,78,0.00,,FEW021,0.00,0.00,VWS V14.01,2013-10-02 02:42:00,
2013-10-01 22:47:00,81.3,73.4,30.02,ENE,64,4.0,13.0,77,0.00,,FEW021,0.00,0.00,VWS V14.01,2013-10-02 02:47:00,
2013-10-01 22:52:00,81.4,73.9,30.02,NE,40,6.0,8.0,78,0.00,,FEW021,0.00,0.00,VWS V14.01,2013-10-02 02:52:00,
2013-10-01 22:57:00,81.4,73.9,30.02,NE,40,5.0,11.0,78,0.00,,FEW021,0.00,0.00,VWS V14.01,2013-10-02 02:57:00,
2013-10-01 23:01:00,81.4,73.9,30.02,ESE,115,3.0,7.0,78,0.00,,FEW021,0.00,0.00,VWS V14.01,2013-10-02 03:01:00,
2013-10-01 23:06:00,81.3,74.5,30.02,ENE,69,2.0,7.0,80,0.00,,FEW021,0.00,0.00,VWS V14.01,2013-10-02 03:06:00,
2013-10-01 23:12:00,81.0,74.2,30.02,ENE,59,1.0,5.0,80,0.00,,FEW021,0.00,0.00,VWS V14.01,2013-10-02 03:12:00,
2013-10-01 23:16:00,80.7,74.0,30.01,East,90,2.0,4.0,80,0.00,,FEW021,0.00,0.00,VWS V14.01,2013-10-02 03:16:00,
2013-10-01 23:21:00,80.5,74.1,30.01,NE,36,5.0,7.0,81,0.00,,FEW021,0.00,0.00,VWS V14.01,2013-10-02 03:21:00,
2013-10-01 23:26:00,80.5,74.1,30.01,NE,44,2.0,5.0,81,0.00,,FEW021,0.00,0.00,VWS V14.01,2013-10-02 03:26:00,
2013-10-01 23:31:00,80.4,74.0,30.01,ENE,67,3.0,5.0,81,0.00,,FEW021,0.00,0.00,VWS V14.01,2013-10-02 03:31:00,
2013-10-01 23:36:00,80.3,73.9,30.01,ESE,110,5.0,8.0,81,0.00,,FEW021,0.00,0.00,VWS V14.01,2013-10-02 03:36:00,
2013-10-01 23:41:00,80.3,74.3,30.01,NE,51,4.0,5.0,82,0.00,,FEW021,0.00,0.00,VWS V14.01,2013-10-02 03:41:00,
2013-10-01 23:46:00,80.3,74.3,30.01,NE,44,4.0,4.0,82,0.00,,FEW021,0.00,0.00,VWS V14.01,2013-10-02 03:46:00,
2013-10-01 23:51:00,80.3,74.3,30.01,ESE,115,1.0,5.0,82,0.00,,FEW021,0.00,0.00,VWS V14.01,2013-10-02 03:51:00,
2013-10-01 23:56:00,80.3,74.7,30.02,East,86,2.0,4.0,83,0.00,,FEW021,0.00,0.00,VWS V14.01,2013-10-02 03:56:00,